Weather History for Dyersburg, TN

Change the Weather History Date:

Tuesday, October 12, 2010

  Actual Average Record
Temperature  
Mean Temperature 70 °F -  
Max Temperature 82 °F 69 °F 82 °F (1997)
Min Temperature 57 °F 49 °F 39 °F (1996)
Cooling Degree Days 4    
Growing Degree Days 20 (Base 50)    
Moisture  
Dew Point 51 °F    
Average Humidity 54    
Maximum Humidity 72    
Minimum Humidity 37    
Precipitation  
Precipitation 0.00 in - - ()
Sea Level Pressure  
Sea Level Pressure 29.89 in    
Wind  
Wind Speed 3 mph (SW)    
Max Wind Speed 10 mph    
Max Gust Speed -    
Visibility 10 miles    
Events      
Averages and records for this station are not official NWS values.
T = Trace of Precipitation, MM = Missing Value Source: NWS Daily Summary

Daily Weather History Graph

Daily Weather History Graph

Search for Another Location

Airport:

Trip Planner

Search our weather history database for the weather conditions in past years. The results will help you decide how hot, cold, wet, or windy it might be!

Date:

Astronomy

Oct. 12, 2010 Rise Set
Actual Time 7:01 AM CDT 6:25 PM CDT
Civil Twilight 6:36 AM CDT 6:51 PM CDT
Nautical Twilight 6:06 AM CDT 7:21 PM CDT
Astronomical Twilight 5:36 AM CDT 7:50 PM CDT
Moon 12:24 PM CDT (10/12) 10:12 PM CDT (10/12)
Length of Visible Light 12h 15m
Length of Day
11h 24m
Waxing Crescent, 29% of the Moon is Illuminated
Oct 12
Waxing Crescent
Oct 14
First Quarter
Oct 22
Full
Oct 30
Last Quarter
Nov 5
New

Hourly Weather History & Observations

Time (CDT) Temp. Heat Index Dew Point Humidity Pressure Visibility Wind Dir Wind Speed Gust Speed Precip Events Conditions
12:15 AM 62.6 °F - 48.2 °F 59% 29.88 in 10.0 mi Calm Calm - N/A   Mostly Cloudy
12:35 AM 62.6 °F - 48.2 °F 59% 29.88 in 10.0 mi Calm Calm - N/A   Overcast
12:55 AM 62.6 °F - 48.2 °F 59% 29.88 in 10.0 mi South 3.5 mph - N/A   Mostly Cloudy
1:15 AM 62.6 °F - 48.2 °F 59% 29.88 in 10.0 mi Calm Calm - N/A   Overcast
1:35 AM 60.8 °F - 48.2 °F 63% 29.88 in 10.0 mi Calm Calm - N/A   Partly Cloudy
1:55 AM 62.6 °F - 48.2 °F 59% 29.88 in 10.0 mi South 3.5 mph - N/A   Clear
2:15 AM 60.8 °F - 48.2 °F 63% 29.88 in 10.0 mi South 3.5 mph - N/A   Clear
2:35 AM 62.6 °F - 48.2 °F 59% 29.87 in 10.0 mi South 3.5 mph - N/A   Clear
2:55 AM 60.8 °F - 48.2 °F 63% 29.87 in 10.0 mi SSE 3.5 mph - N/A   Clear
3:15 AM 60.8 °F - 48.2 °F 63% 29.87 in 10.0 mi South 4.6 mph - N/A   Clear
3:35 AM 60.8 °F - 46.4 °F 59% 29.87 in 10.0 mi South 3.5 mph - N/A   Clear
3:55 AM 60.8 °F - 48.2 °F 63% 29.87 in 10.0 mi SSW 3.5 mph - N/A   Clear
4:15 AM 60.8 °F - 48.2 °F 63% 29.87 in 10.0 mi South 4.6 mph - N/A   Clear
4:35 AM 60.8 °F - 48.2 °F 63% 29.88 in 10.0 mi Calm Calm - N/A   Clear
4:55 AM 60.8 °F - 48.2 °F 63% 29.88 in 10.0 mi Calm Calm - N/A   Clear
5:15 AM 60.8 °F - 48.2 °F 63% 29.88 in 10.0 mi Calm Calm - N/A   Clear
5:35 AM 60.8 °F - 48.2 °F 63% 29.89 in 10.0 mi Calm Calm - N/A   Clear
5:55 AM 59.0 °F - 48.2 °F 67% 29.89 in 10.0 mi Calm Calm - N/A   Clear
6:15 AM 57.2 °F - 48.2 °F 72% 29.89 in 10.0 mi Calm Calm - N/A   Clear
6:35 AM 57.2 °F - 48.2 °F 72% 29.89 in 10.0 mi Calm Calm - N/A   Clear
6:55 AM 57.2 °F - 48.2 °F 72% 29.89 in 10.0 mi Calm Calm - N/A   Clear
7:15 AM 60.8 °F - 48.2 °F 63% 29.89 in 10.0 mi Calm Calm - N/A   Mostly Cloudy
7:35 AM 59.0 °F - 48.2 °F 67% 29.90 in 10.0 mi Calm Calm - N/A   Mostly Cloudy
7:55 AM 59.0 °F - 48.2 °F 67% 29.90 in 10.0 mi SE 4.6 mph - N/A   Clear
8:15 AM 62.6 °F - 50.0 °F 63% 29.91 in 10.0 mi Calm Calm - N/A   Clear
8:35 AM 62.6 °F - 50.0 °F 63% 29.92 in 10.0 mi South 4.6 mph - N/A   Clear
8:55 AM 64.4 °F - 51.8 °F 64% 29.92 in 10.0 mi Calm Calm - N/A   Mostly Cloudy
9:15 AM 64.4 °F - 51.8 °F 64% 29.93 in 10.0 mi South 3.5 mph - N/A   Overcast
9:35 AM 68.0 °F - 53.6 °F 60% 29.93 in 10.0 mi WSW 5.8 mph - N/A   Mostly Cloudy
9:55 AM 69.8 °F - 53.6 °F 56% 29.93 in 10.0 mi WSW 8.1 mph - N/A   Clear
10:15 AM 71.6 °F - 55.4 °F 57% 29.93 in 10.0 mi SW 6.9 mph - N/A   Clear
10:35 AM 73.4 °F - 55.4 °F 53% 29.93 in 10.0 mi WSW 8.1 mph - N/A   Clear
10:55 AM 75.2 °F - 55.4 °F 50% 29.93 in 10.0 mi WSW 5.8 mph - N/A   Clear
11:15 AM 75.2 °F - 55.4 °F 50% 29.93 in 10.0 mi WSW 5.8 mph - N/A   Clear
11:35 AM 75.2 °F - 55.4 °F 50% 29.93 in 10.0 mi SW 6.9 mph - N/A   Clear
11:55 AM 77.0 °F - 57.2 °F 50% 29.92 in 10.0 mi WSW 5.8 mph - N/A   Clear
12:15 PM 78.8 °F - 57.2 °F 47% 29.92 in 10.0 mi South 5.8 mph - N/A   Clear
12:35 PM 80.6 °F 80.8 °F 57.2 °F 45% 29.91 in 10.0 mi WSW 6.9 mph - N/A   Partly Cloudy
12:55 PM 82.4 °F 81.7 °F 55.4 °F 39% 29.90 in 10.0 mi WSW 10.4 mph - N/A   Mostly Cloudy
1:15 PM 80.6 °F 80.5 °F 55.4 °F 42% 29.90 in 10.0 mi WSW 3.5 mph - N/A   Scattered Clouds
1:35 PM 80.6 °F 80.5 °F 55.4 °F 42% 29.89 in 10.0 mi WSW 8.1 mph - N/A   Partly Cloudy
1:55 PM 82.4 °F 81.7 °F 55.4 °F 39% 29.88 in 10.0 mi West 4.6 mph - N/A   Clear
2:15 PM 82.4 °F 81.4 °F 53.6 °F 37% 29.87 in 10.0 mi WSW 6.9 mph - N/A   Scattered Clouds
2:35 PM 82.4 °F 81.4 °F 53.6 °F 37% 29.86 in 7.0 mi West 3.5 mph - N/A   Clear
2:55 PM 80.6 °F 80.3 °F 53.6 °F 39% 29.86 in 10.0 mi NNW 5.8 mph - N/A   Mostly Cloudy
3:15 PM 80.6 °F - 51.8 °F 37% 29.86 in 10.0 mi WNW 3.5 mph - N/A   Partly Cloudy
3:35 PM 80.6 °F - 51.8 °F 37% 29.87 in 10.0 mi WSW 8.1 mph - N/A   Clear
3:55 PM 80.6 °F - 51.8 °F 37% 29.87 in 10.0 mi West 4.6 mph - N/A   Clear
4:15 PM 78.8 °F - 51.8 °F 39% 29.87 in 10.0 mi SW 6.9 mph - N/A   Clear
4:35 PM 78.8 °F - 51.8 °F 39% 29.87 in 10.0 mi SW 6.9 mph - N/A   Clear
4:55 PM 77.0 °F - 51.8 °F 41% 29.88 in 10.0 mi WSW 6.9 mph - N/A   Clear
5:15 PM 75.2 °F - 51.8 °F 44% 29.88 in 10.0 mi WSW 6.9 mph - N/A   Clear
5:35 PM 73.4 °F - 51.8 °F 47% 29.88 in 10.0 mi West 6.9 mph - N/A   Clear
5:55 PM 71.6 °F - 48.2 °F 43% 29.89 in 10.0 mi SW 5.8 mph - N/A   Clear
6:15 PM 69.8 °F - 48.2 °F 46% 29.90 in 10.0 mi WSW 6.9 mph - N/A   Clear
6:35 PM 69.8 °F - 48.2 °F 46% 29.91 in 10.0 mi West 6.9 mph - N/A   Clear
6:55 PM 68.0 °F - 48.2 °F 49% 29.91 in 10.0 mi WSW 3.5 mph - N/A   Clear
7:15 PM 66.2 °F - 48.2 °F 52% 29.92 in 10.0 mi WSW 4.6 mph - N/A   Clear
7:35 PM 66.2 °F - 48.2 °F 52% 29.93 in 10.0 mi South 4.6 mph - N/A   Scattered Clouds
7:55 PM 66.2 °F - 50.0 °F 56% 29.93 in 10.0 mi WSW 4.6 mph - N/A   Scattered Clouds
8:15 PM 64.4 °F - 48.2 °F 56% 29.94 in 10.0 mi Calm Calm - N/A   Clear
8:35 PM 64.4 °F - 48.2 °F 56% 29.94 in 10.0 mi SSW 3.5 mph - N/A   Clear
8:55 PM 62.6 °F - 48.2 °F 59% 29.94 in 10.0 mi Calm Calm - N/A   Clear
9:15 PM 62.6 °F - 50.0 °F 63% 29.95 in 10.0 mi Calm Calm - N/A   Clear
9:35 PM 62.6 °F - 50.0 °F 63% 29.96 in 10.0 mi Calm Calm - N/A   Clear
9:55 PM 62.6 °F - 50.0 °F 63% 29.97 in 10.0 mi ENE 3.5 mph - N/A   Scattered Clouds
10:15 PM 62.6 °F - 51.8 °F 68% 29.98 in 10.0 mi Calm Calm - N/A   Mostly Cloudy
10:35 PM 62.6 °F - 50.0 °F 63% 29.99 in 10.0 mi Calm Calm - N/A   Partly Cloudy
10:55 PM 60.8 °F - 50.0 °F 68% 29.99 in 10.0 mi Calm Calm - N/A   Clear
11:15 PM 59.0 °F - 48.2 °F 67% 29.99 in 10.0 mi Calm Calm - N/A   Clear
11:35 PM 59.0 °F - 48.2 °F 67% 29.99 in 10.0 mi Calm Calm - N/A   Clear
11:55 PM 60.8 °F - 50.0 °F 68% 29.99 in 10.0 mi Calm Calm - N/A   Clear